TimeCST,TemperatureF,Dew PointF,Humidity,Sea Level PressureIn,VisibilityMPH,Wind Direction,Wind SpeedMPH,Gust SpeedMPH,PrecipitationIn,Events,Conditions,WindDirDegrees,DateUTC
12:50 AM,33.8,33.8,100,30.05,2.5,NE,6.9,-,N/A,,Overcast,40,2013-01-01 06:50:00
12:52 AM,34.0,33.1,96,30.08,2.5,NE,8.1,-,N/A,,Overcast,40,2013-01-01 06:52:00
1:04 AM,33.1,33.1,100,30.05,3.0,NNE,8.1,-,N/A,,Overcast,30,2013-01-01 07:04:00
1:52 AM,33.1,32.0,96,30.08,3.0,NNE,10.4,-,N/A,,Overcast,20,2013-01-01 07:52:00
2:00 AM,33.1,32.0,96,30.04,1.8,NNE,11.5,-,N/A,,Overcast,20,2013-01-01 08:00:00
2:23 AM,33.1,32.0,96,30.04,2.5,NNE,12.7,-,N/A,,Overcast,30,2013-01-01 08:23:00
2:41 AM,33.1,32.0,96,30.06,3.0,NNE,10.4,-,N/A,,Overcast,20,2013-01-01 08:41:00
2:52 AM,33.1,32.0,96,30.08,4.0,NNE,11.5,-,N/A,,Overcast,20,2013-01-01 08:52:00
3:52 AM,32.0,32.0,100,30.08,4.0,NNE,12.7,-,N/A,,Overcast,30,2013-01-01 09:52:00
4:52 AM,32.0,30.9,96,30.08,5.0,NNE,16.1,-,N/A,,Overcast,30,2013-01-01 10:52:00
5:48 AM,30.2,30.2,100,30.08,1.0,NNE,12.7,-,N/A,,Overcast,20,2013-01-01 11:48:00
5:52 AM,30.9,30.9,100,30.12,1.0,NNE,10.4,-,N/A,,Overcast,20,2013-01-01 11:52:00
6:52 AM,30.0,28.9,96,30.14,1.0,NNE,9.2,-,N/A,,Overcast,30,2013-01-01 12:52:00
6:59 AM,30.0,28.9,96,30.14,4.0,North,10.4,-,N/A,,Overcast,360,2013-01-01 12:59:00
7:02 AM,30.0,28.9,96,30.14,2.0,North,8.1,-,N/A,,Overcast,10,2013-01-01 13:02:00
7:42 AM,30.0,28.9,96,30.14,2.0,NNE,8.1,-,N/A,,Overcast,20,2013-01-01 13:42:00
7:52 AM,30.0,28.9,96,30.17,2.0,NNE,9.2,-,N/A,,Overcast,20,2013-01-01 13:52:00
8:22 AM,28.9,28.0,96,30.10,2.0,North,15.0,-,N/A,,Overcast,10,2013-01-01 14:22:00
8:52 AM,28.0,27.0,96,30.18,2.0,North,13.8,-,N/A,,Overcast,10,2013-01-01 14:52:00
9:30 AM,27.0,25.0,92,30.17,2.0,North,11.5,-,N/A,,Overcast,360,2013-01-01 15:30:00
9:52 AM,27.0,25.0,92,30.21,2.0,North,12.7,-,N/A,,Overcast,10,2013-01-01 15:52:00
10:52 AM,27.0,24.1,89,30.23,2.0,North,10.4,-,N/A,,Overcast,10,2013-01-01 16:52:00
10:59 AM,27.0,24.1,89,30.19,6.0,North,10.4,-,N/A,,Overcast,10,2013-01-01 16:59:00
11:52 AM,27.0,24.1,89,30.21,8.0,North,11.5,-,N/A,,Overcast,350,2013-01-01 17:52:00
12:43 PM,27.0,24.1,89,30.16,8.0,North,9.2,-,N/A,,Overcast,360,2013-01-01 18:43:00
12:52 PM,27.0,24.1,89,30.20,7.0,NNW,11.5,-,N/A,,Overcast,340,2013-01-01 18:52:00
1:03 PM,27.0,23.0,85,30.16,6.0,North,11.5,-,N/A,,Overcast,350,2013-01-01 19:03:00
1:52 PM,27.0,23.0,85,30.20,7.0,North,11.5,-,N/A,,Overcast,360,2013-01-01 19:52:00
2:05 PM,27.0,23.0,85,30.17,6.0,North,11.5,-,N/A,,Overcast,360,2013-01-01 20:05:00
2:49 PM,26.6,21.2,80,30.18,8.0,North,11.5,-,N/A,,Overcast,350,2013-01-01 20:49:00
2:52 PM,26.1,21.9,84,30.22,9.0,North,10.4,-,N/A,,Overcast,360,2013-01-01 20:52:00
3:29 PM,26.1,21.9,84,30.19,8.0,NNW,11.5,-,N/A,,Overcast,340,2013-01-01 21:29:00
3:52 PM,26.1,21.9,84,30.22,9.0,North,10.4,-,N/A,,Overcast,350,2013-01-01 21:52:00
4:03 PM,26.1,21.9,84,30.19,9.0,North,10.4,-,N/A,,Overcast,360,2013-01-01 22:03:00
4:49 PM,26.6,21.2,80,30.20,10.0,North,8.1,-,N/A,,Overcast,360,2013-01-01 22:49:00
4:52 PM,26.1,21.0,81,30.24,10.0,North,9.2,-,N/A,,Overcast,350,2013-01-01 22:52:00
5:52 PM,23.0,18.0,81,30.25,10.0,North,6.9,-,N/A,,Partly Cloudy,10,2013-01-01 23:52:00
6:52 PM,21.0,18.0,88,30.25,9.0,North,5.8,-,N/A,,Clear,360,2013-01-02 00:52:00
7:52 PM,19.0,15.1,85,30.27,8.0,NW,5.8,-,N/A,,Clear,320,2013-01-02 01:52:00
8:52 PM,19.0,15.1,85,30.27,9.0,NNW,5.8,-,N/A,,Clear,330,2013-01-02 02:52:00
9:52 PM,19.0,15.1,85,30.26,10.0,North,5.8,-,N/A,,Clear,360,2013-01-02 03:52:00
10:52 PM,18.0,14.0,84,30.28,9.0,NW,3.5,-,N/A,,Clear,310,2013-01-02 04:52:00
11:52 PM,17.1,12.9,84,30.27,9.0,Calm,Calm,-,N/A,,Clear,0,2013-01-02 05:52:00